Content
SEND FEEDBACK

Daily
Averages
Monthly
Summary
United States of America

HAGERSTOWN - CITY PARK, MARYLAND


Home > North America > United States > Maryland
Elevation: 56 feet     Latitude: 39 38N     Longitude: 077 44W

WEATHER
 
SELECT A DAY
Number of Records: 186,762;   Date Range: 1/1/95 - 7/23/14
 
SHARE

PRINT THIS DATA

[ ← Previous Day ]
WEATHER ALMANAC - JANUARY 31, 2013
[ Next Day → ]
[ °C ]   °F
Weather ElementAverageHighLow
Temperature39.7 °F53.6 °F (12:51 am)28 °F (6:53 pm)
Dewpoint27.5 °F52 °F (1:53 am)9 °F (6:53 pm)
Humidity63.4 %96 % (1:53 am)43 % (11:53 am)
Barometer29.55 in29.92 in (10:53 pm)29.19 in (3:04 am)
Wind Speed17.8 mph32.2 mph (4:53 am)
Wind Gust46 mph (3:53 am)
Weather ElementAverage
Visibility9.1 mi
Wind DirectionW (265 °)

Weather ElementTotal
Precipitation0.62 in
Heating Degree Days24.2 (Base 65)
Averaged from 26 records on January 31, 2013
WEATHER CONDITIONS BREAKOUT
WIND DIRECTION BREAKOUT
WEATHER BY HOUR - JANUARY 31, 2013
[ °C ]   °F
Local TimeTemperatureDewpointHumidityBarometerVisibilityWind DirectionWind SpeedGust SpeedPrecipitationEventsConditions
12:51 AM53.6 °F51.8 °F94 %29.24 in8.0 miWest (270°)13.8 mph0.19 inRainLight Rain
12:53 AM53.1 °F51.1 °F93 %29.26 in7.0 miWest (270°)12.7 mph0.20 inRainLight Rain
1:07 AM53.6 °F51.8 °F94 %29.21 in7.0 miWSW (250°)8.1 mph0.02 inRainLight Rain
1:53 AM53.1 °F52.0 °F96 %29.24 in5.0 miSW (230°)4.6 mph0.08 inRainLight Rain
2:37 AM53.6 °F50.0 °F88 %29.20 in6.0 miWest (270°)13.8 mph21.9 mph0.05 inRainLight Rain
2:53 AM51.1 °F48.9 °F92 %29.23 in6.0 miWest (270°)12.7 mph19.6 mph0.07 inRainLight Rain
3:04 AM51.8 °F44.6 °F76 %29.19 in10.0 miWest (260°)20.7 mph28.8 mph0.00 inRainLight Rain
3:53 AM46.0 °F35.1 °F66 %29.30 in10.0 miWNW (290°)27.6 mph46.0 mph0.01 inOvercast
4:53 AM44.1 °F30.9 °F60 %29.32 in10.0 miWest (280°)32.2 mph46.0 mphOvercast
5:53 AM39.0 °F27.0 °F62 %29.43 in10.0 miWNW (290°)23.0 mph39.1 mphScattered Clouds
6:53 AM37.9 °F25.0 °F60 %29.50 in10.0 miWest (270°)13.8 mph26.5 mphOvercast
7:53 AM37.0 °F23.0 °F57 %29.54 in10.0 miWest (270°)19.6 mph32.2 mphMostly Cloudy
8:53 AM37.0 °F21.9 °F54 %29.58 in10.0 miWest (270°)25.3 mph34.5 mphMostly Cloudy
9:53 AM39.0 °F21.0 °F49 %29.60 in10.0 miWest (270°)28.8 mph38.0 mphMostly Cloudy
10:53 AM37.9 °F18.0 °F45 %29.65 in10.0 miWest (280°)23.0 mph36.8 mphMostly Cloudy
11:53 AM37.9 °F17.1 °F43 %29.67 in10.0 miWest (280°)25.3 mph38.0 mphMostly Cloudy
12:53 PM36.0 °F16.0 °F44 %29.69 in10.0 miWest (260°)25.3 mph38.0 mphMostly Cloudy
1:53 PM34.0 °F18.0 °F52 %29.70 in9.0 miWest (270°)20.7 mph34.5 mph0.00 inSnowLight Snow
2:53 PM32.0 °F21.0 °F64 %29.75 in9.0 miWest (260°)20.7 mph32.2 mph0.00 inSnowLight Snow
3:53 PM33.1 °F17.1 °F52 %29.76 in10.0 miWSW (250°)15.0 mph23.0 mph0.00 inOvercast
4:53 PM30.9 °F18.0 °F59 %29.80 in10.0 miWest (270°)23.0 mph28.8 mph0.00 inMostly Cloudy
5:53 PM28.9 °F16.0 °F58 %29.86 in9.0 miWest (260°)23.0 mph29.9 mph0.00 inSnowLight Snow
6:53 PM28.0 °F9.0 °F45 %29.90 in10.0 miWest (260°)13.8 mphMostly Cloudy
9:53 PM28.0 °F9.0 °F45 %29.90 in10.0 miSW (230°)6.9 mphClear
10:53 PM28.0 °F10.9 °F49 %29.92 in10.0 miWSW (250°)4.6 mphScattered Clouds
11:53 PM28.0 °F12.0 °F51 %29.90 in10.0 miWest (260°)4.6 mphClear
Hourly data recorded from KHGR, located miles away from Hagerstown - City Park, Maryland







STORIES FROM OUR PARTNERS